Flag for Brazil Weather past 2 weeks in Fortaleza, Ceará, Brazil

Now
82 °F

Passing clouds.


Feels Like: 85 °F
Forecast: 75 / 85 °F
Wind: 21 mph from East

Location: Fortaleza Aeropor-To

Current Time: Jul 29, 2015 at 5:04:14 PM

Latest Report: Jul 29, 2015 at 4:00 PM


Visibility: N/A

Pressure: 29.92 "Hg

Humidity: 62%

Dew point: 68 °F

Location of FortalezaLocation

Historic Weather in Fortaleza — Graph

°F

Fortaleza temperature yesterday

Maximum temperature yesterday: 84 °F (at 1:00 PM)
Minimum temperature yesterday: 73 °F (at 5:00 AM)
Average temperature yesterday: 79 °F

Past Weeks' High & Low Weather Summary

 TemperatureHumidityPressure
High86 °F (Jul 15, 12:00 PM)100% (Jul 17, 3:00 AM)30.04 "Hg (Jul 17, 3:00 AM)
Low70 °F (Jul 27, 6:00 AM)46% (Jul 15, 2:00 PM)29.86 "Hg (Jul 14, 4:00 PM)
Average79 °F70%29.95 "Hg
* Reported Jul 14 4:00 PM — Jul 29 4:00 PM, Fortaleza, Weather by CustomWeather, © 2015

Note: Actual official high and low records may vary slightly from our data, if they occured in-between our weather recording intervals... More about our weather records

Advertising

Fortaleza weather history for previous 24 hours

 ConditionsComfort  
Time TempWeatherWind HumidityBarometerVisibility
4:00 PM
Wed, Jul 29
82 °FPassing clouds.21 mph62%29.92 "HgN/A
3:00 PM84 °FPassing clouds.17 mph55%29.92 "HgN/A
2:00 PM84 °FPassing clouds.22 mph51%29.92 "HgN/A
1:00 PM84 °FScattered clouds.18 mph55%29.95 "HgN/A
12:00 PM84 °FScattered clouds.20 mph51%29.98 "HgN/A
11:00 AM82 °FScattered clouds.18 mph55%30.01 "HgN/A
10:00 AM82 °FScattered clouds.18 mph55%30.01 "HgN/A
9:00 AM81 °FPassing clouds.16 mph58%30.01 "HgN/A
8:00 AM77 °FSunny.15 mph65%30.01 "Hg10 mi
7:00 AM75 °FSunny.12 mph69%29.98 "Hg10 mi
6:00 AM73 °FSunny.10 mph78%29.98 "Hg10 mi
5:00 AM73 °FClear.10 mph78%29.95 "Hg10 mi
4:00 AM75 °FPassing clouds.8 mph74%29.95 "HgN/A
3:00 AM75 °FPartly cloudy.8 mph74%29.95 "HgN/A
2:00 AM77 °FPassing clouds.7 mph74%29.95 "HgN/A
1:00 AM77 °FPassing clouds.10 mph74%29.95 "HgN/A
12:00 AM77 °FPassing clouds.15 mph79%29.98 "HgN/A
11:00 PM
Tue, Jul 28
79 °FPassing clouds.17 mph74%29.98 "HgN/A
10:00 PM79 °FPassing clouds.16 mph74%29.98 "HgN/A
9:00 PM79 °FPassing clouds.18 mph74%29.95 "HgN/A
8:00 PM79 °FPassing clouds.16 mph74%29.95 "HgN/A
7:00 PM79 °FPassing clouds.16 mph74%29.92 "HgN/A
6:00 PM79 °FClear.14 mph70%29.92 "Hg10 mi
5:00 PM81 °FPassing clouds.18 mph70%29.89 "HgN/A
Weather by CustomWeather, © 2015

See weather overviewHow to use our weather pages